Вернуться в каталог

SL-16 DEB

LostLEO
NORAD 39870·DEBRIS·🇷🇺 Russia

Запущен Mar 26, 1993 с Baikonur Cosmodrome

Loading…

Ближайшие Пролёты (ближайшие 24 часа)

TLE

УстаревшееSource: Space-Track

Эпоха: Nov 29, 2022, 01:41 UTC

1 39870U 93016AU  22333.07047867  .00005529  00000-0  20732-2 0  9995
2 39870  70.9830 119.9293 0121403 316.9527  42.2153 14.28069958 11780

Отслеживайте SL-16 DEB в реальном времени с AllMySat

Download on the App Store